www.pogodaiklimat.ru
ПОГОДА в Багио

Архив погоды в Багио (Филиппины)

Время
(UTC), дата
00 8.04
03 8.04
06 8.04
09 8.04
12 8.04
15 8.04
18 8.04
21 8.04
00 9.04
03 9.04
06 9.04
09 9.04
12 9.04
15 9.04
18 9.04
21 9.04
00 10.04
03 10.04
06 10.04
09 10.04
12 10.04
15 10.04
18 10.04
21 10.04
00 11.04
03 11.04
06 11.04
09 11.04
12 11.04
15 11.04
18 11.04
21 11.04
00 12.04
03 12.04
06 12.04
09 12.04
12 12.04
15 12.04
18 12.04
21 12.04
00 13.04
03 13.04
06 13.04
09 13.04
12 13.04
15 13.04
18 13.04
21 13.04
00 14.04
03 14.04
06 14.04
09 14.04
12 14.04
15 14.04
18 14.04
Ветер
(напр.,м/с)
Видим. Явления Облачность Т
(С)
Тd
(С)
f
(%)
Тe
(С)
Тes
(С)
Комфортность P
(гПа)
Po
(гПа)
Тmin
(С)
Tmax
(С)
R
(мм)
R24
(мм)
S
(см)
штиль 0 15 км мгла 1/1 450 м
[Cu hum Ci fib]
+20.4 +18.4 88 +24 +31 комфорт 1009.9 853.3 +18.2
ЮЗ 1 10 км туман на расстоянии {мгла} 6/6 360 м
[Cu med, cong]
+24.8 +19.2 71 +30 +39 душно 1009.0 853.6
СЗ 2 7000 м туман на расстоянии {мгла} 9/9 360 м
[Cu med, cong]
+25.2 +20.3 74 +31 +33 очень душно 1007.4 852.2
З 1 8000 м туман на расстоянии {мгла} 9/9 360 м
[Cu med, cong]
+24.0 +19.3 75 +29 +29 душно 1007.5 851.8
Ю 1 5000 м зарница {гроза} 8/8 360 м
[Cb cap]
+21.2 +18.6 85 +26 +26 душно 1009.4 853.1 +25.4
штиль 0 5000 м туман на расстоянии 3/1 400 м
[Sc Ci fib]
+19.8 +18.0 89 +22 +22 комфорт 1008.8 853.4
штиль 0 5000 м мгла 1/1 450 м
[Cu hum Ci fib]
+19.0 +18.1 95 +21 +21 комфорт 1007.5 852.1
штиль 0 6000 м туман на расстоянии {мгла} 6/6 400 м
[Sc]
+18.8 +18.2 96 +20 +20 1008.1 852.3
штиль 0 14 км мгла 5/5 360 м
[Cu med, cong]
+20.6 +18.3 87 +24 +28 комфорт 1010.5 854.0 +18.2
штиль 0 10 км туман на расстоянии {мгла} 9/9 400 м
[Cu med, cong]
+23.6 +18.5 73 +28 +31 душно 1009.8 854.0
штиль 0 10 км туман на расстоянии {мгла} 9/9 400 м
[Cu med, cong]
+24.0 +20.1 79 +30 +32 очень душно 1008.1 852.6
ЮЗ 1 10 км туман на расстоянии 9/9 360 м
[Cu med, cong]
+23.0 +19.1 79 +29 +29 очень душно 1008.4 852.3
В 1 6000 м слаб. ливневой дождь {гроза, туман} 10/6 360 м
[Sc Ac As]
+20.4 +18.9 91 +25 +25 комфорт 1009.5 853.2 +24.6 10
Ю 2 6000 м туман на расстоянии {ливн. дождь} 9/6 360 м
[Sc Ac As]
+19.6 +18.4 93 +23 +23 комфорт 1010.0 853.9 0.0
штиль 0 6000 м туман на расстоянии {ливн. дождь} 4/4 360 м
[Sc]
+18.2 +17.0 93 +19 +19 1008.6 852.4 0.0
штиль 0 5000 м туман на расстоянии 9/6 360 м
[Sc Ac As]
+18.4 +17.5 94 +19 +19 1008.9 852.7
штиль 0 6000 м туман на расстоянии 4/4 400 м
[Cu med, cong]
+19.8 +18.6 93 +22 +27 комфорт 1010.9 854.2 +18.0 10 10.2
штиль 0 8000 м туман на расстоянии 9/9 360 м
[Cu med, cong]
+22.6 +18.6 78 +28 +31 душно 1010.7 854.5
З 2 8000 м туман на расстоянии {ливн. дождь} 10/6 360 м
[Sc Ac As]
+22.4 +19.3 83 +28 +30 душно 1009.4 852.9 0.0
штиль 0 4000 м слаб. ливневой дождь {туман} 10/6 360 м
[Sc Ac As]
+20.8 +19.1 90 +25 +25 комфорт 1009.4 852.6 0.0
ЮВ 2 6000 м туман на расстоянии {ливн. дождь} 6/6 360 м
[Sc]
+19.8 +17.7 88 +23 +23 комфорт 1010.8 853.8 +23.0 1
В 1 7000 м туман на расстоянии 4/4 360 м
[Sc]
+18.8 +17.3 91 +21 +21 комфорт 1011.2 854.4
штиль 0 7000 м туман на расстоянии 4/4 360 м
[Sc]
+17.8 +16.6 93 +18 +18 1009.4 852.6
В 1 7000 м туман на расстоянии 3/3 360 м
[Sc]
+17.2 +16.6 96 +18 +18 1010.0 852.5
Ю 2 10 км туман на расстоянии 1/1 450 м
[Cu hum]
+19.4 +17.6 89 +22 +28 комфорт 1010.7 853.7 +17.0 1 1.0
СЗ 1 10 км туман на расстоянии 8/8 360 м
[Cu med, cong]
+23.0 +18.5 76 +29 +34 очень душно 1010.9 854.4
З 1 8000 м туман на расстоянии 9/9 360 м
[Cu med, cong]
+23.2 +19.0 77 +29 +31 душно 1008.9 852.7
штиль 0 6000 м туман на расстоянии 9/9 360 м
[Cu med, cong]
+22.2 +19.1 83 +28 +28 душно 1009.4 852.6
ЮВ 1 5000 м туман на расстоянии 8/5 360 м
[Sc Ac As]
+20.6 +18.3 87 +26 +26 душно 1010.1 853.2 +24.0
ЮВ 1 5000 м туман на расстоянии 3/3 360 м
[Sc]
+19.0 +17.5 91 +22 +22 комфорт 1010.2 853.8
ЮВ 1 4000 м туман на расстоянии 10/6 360 м
[Sc Ac As]
+18.0 +17.4 96 +19 +19 1008.8 852.4
штиль 0 7000 м туман на расстоянии 1/1 450 м
[Cu hum]
+17.2 +16.0 93 +17 +17 1009.3 852.2
ЮВ 1 15 км мгла 1/1 450 м
[Cu hum]
+20.0 +16.8 82 +24 +30 комфорт 1010.2 853.6 +17.0
ЮЗ 2 10 км туман на расстоянии {мгла} 6/6 360 м
[Cu med, cong]
+25.4 +15.0 53 +28 +37 жарко 1009.6 853.6
З 2 10 км туман на расстоянии 9/9 360 м
[Cu med, cong]
+24.8 +18.6 68 +29 +31 душно 1007.7 852.0
штиль 0 10 км туман на расстоянии 6/6 360 м
[Cu med, cong]
+23.4 +18.6 74 +30 +31 очень душно 1007.9 851.6
штиль 0 5000 м мгла 3/1 420 м
[Cu hum Ci fib]
+20.6 +18.3 87 +24 +24 комфорт 1008.9 852.5 +26.2
штиль 0 5000 м мгла 3/1 450 м
[Cu hum Ac trans Ci fib]
+19.6 +17.8 89 +22 +22 комфорт 1008.7 853.3
штиль 0 5000 м мгла 1/1 450 м
[Cu hum Ci fib]
+18.8 +17.9 95 +20 +20 1007.2 851.8
штиль 0 6000 м мгла 1/1 450 м
[Cu hum]
+17.6 +16.7 94 +18 +18 1008.1 851.8
штиль 0 14 км мгла 1/1 450 м
[Cu hum]
+20.8 +17.3 80 +24 +32 комфорт 1009.4 852.9 +17.4
Ю 2 10 км туман на расстоянии {мгла} 3/3 450 м
[Cu hum]
+25.8 +15.4 53 +29 +43 душно 1008.9 853.3
ЮЗ 3 10 км туман на расстоянии {мгла} 9/9 360 м
[Cu med, cong]
+25.8 +18.8 65 +31 +32 очень душно 1006.9 851.8
штиль 0 10 км туман на расстоянии {мгла} 9/9 360 м
[Cu med, cong]
+23.0 +18.2 74 +29 +29 очень душно 1008.3 852.0
штиль 0 5000 м туман на расстоянии {мгла} 6/6 400 м
[Sc]
+20.6 +18.3 87 +24 +24 комфорт 1009.4 853.1 +25.8
штиль 0 5000 м мгла 1/1 450 м
[Cu hum Ci fib]
+19.4 +17.0 86 +21 +21 комфорт 1009.3 853.8
штиль 0 5000 м мгла 4/1 450 м
[Cu hum Cs]
+18.6 +16.5 88 +19 +19 1008.0 852.5
штиль 0 6000 м мгла 1/1 450 м
[Cu hum Ci fib]
+18.2 +16.4 89 +19 +19 1009.6 853.1
штиль 0 15 км мгла 1/1 450 м
[Cu hum]
+20.8 +16.2 75 +24 +32 комфорт 1011.8 854.6 +17.6
ЮВ 1 15 км мгла 1/1 450 м
[Cu hum]
+26.6 +14.2 46 +29 +51 опасность солнечного удара 1010.8 854.9
З 2 10 км туман на расстоянии {мгла} 9/9 360 м
[Cu med, cong]
+25.6 +18.9 66 +31 +32 очень душно 1008.7 853.1
ЮЗ 1 10 км туман на расстоянии {мгла} 8/8 360 м
[Cu med, cong]
+24.8 +18.6 68 +29 +30 душно 1009.3 853.0
штиль 0 5000 м туман на расстоянии {мгла} 9/5 400 м
[Sc Ac As]
+20.8 +18.5 87 +25 +25 комфорт 1010.9 854.4 +27.4
штиль 0 5000 м мгла 3/1 420 м
[Cu hum Ci fib]
+19.8 +17.7 88 +22 +22 комфорт 1010.1 854.7
штиль 0 5000 м мгла 1/1 450 м
[Cu hum Ci fib]
+19.0 +17.5 91 +20 +20 1008.6 853.2
Местоположение метеостанции Багио (Филиппины): широта 16.42 долгота 120.60 высота над уровнем моря 1501 м.
В архиве по умолчанию представлена погода в Багио за последнюю неделю. Архивные данные за месяц целиком и за предыдущие месяцы, начиная с января 2011 года, Вы можете получить, выбрав интересующий диапазон дат из раскрывающегося списка и нажав кнопку "Найти!".
*Определитесь, кто Вы:
Внимание! Время в таблицах - всемирное. Для получения местного времени необходимо прибавить поправку, которая равна 8 ч.
Некоторые строки с данными для отдельных станций могут быть выделены курсивом. Это означает, что фактические данные отсутствуют по различным причинам, а приведенные значения являются расчетными модельными данными для данного пункта наблюдений.
Смотрите также архив погоды в соседних городах и на ближайших метеорологических станциях:
Партнеры нашего сайта:      
Пояснения к столбцам:
  • Ветер - указаны скорость ветра в м/с - средняя за 10 мин, порывы в срок и между сроками (в фигурных скобках) и направление, откуда дует ветер: С - северный,
  • СВ - северо-восточный, В - восточный, ЮВ - юго-восточный, Ю - южный, ЮЗ - юго-западный, З - западный, СЗ - северо-западный.
  • Видимость - горизонтальная дальность видимости в метрах или километрах. При видимости от 1 до 10 км при отсутствии осадков обычно наблюдается дымка, при ухудшении видимости до 1 км и менее - туман. В сухую погоду видимость может ухудшаться дымом, пылью или мглою.
  • Явления - указаны атмосферные явления, наблюдавшиеся в срок или в последний час перед сроком; фигурными скобками обозначены явления, наблюдавшиеся между сроками (за 1-3 часа до срока); квадратными скобками обозначены град или гололедные отложения с указанием их диаметра в мм.
  • Облачность - указаны через наклонную черту общая и нижняя облачность в баллах и высота нижней границы облаков в метрах; квадратными скобками обозначены формы облаков: Ci - перистые, Cs - перисто-слоистые, Cc - перисто-кучевые, Ac - высококучевые, As - высокослоистые, Sc - слоисто-кучевые, Ns - слоисто-дождевые, Cu - кучевые, Cb - кучево-дождевые. Подробнее классификацию облаков см. в Атласе облаков (PDF).
  • T - Температура воздуха - температура, измеренная на высоте 2 м над землей.
  • Td - Температура точки росы - температура, при понижении до которой содержащийся в воздухе водяной пар достигнет насыщения.
  • f - Относительная влажность воздуха - влажноcть воздуха, измеренная на высоте 2 м над землей.
  • Te - Эффективная температура - температура, которую ощущает одетый по сезону человек в тени. Характеристика душности погоды. При расчете учитывается влияние влажности воздуха и скорости ветра на теплоощущения человека.
  • Tes - Эффективная температура на солнце - температура, которую ощущает человек, с поправкой на солнечный нагрев. Характеристика знойности погоды. Зависит от высоты солнца над горизонтом, облачности и скорости ветра. Ночью, в пасмурную погоду, а также при ветре 12 м/с и более поправка равна нулю.
  • P - Атмосферное давление - приведенное к уровню моря атмосферное давление.
  • Po - Атмосферное давление - измеренное на уровне метеостанции атмосферное давление.
  • Tmin - Минимальная температура - минимум температуры воздуха на высоте 2 м над землей.
  • Tmax - Максимальная температура - максимум температуры воздуха на высоте 2 м над землей.
  • R - Количество осадков - Количество выпавших осадков за период времени, мм. При наведении курсора мыши на число - период времени, за который выпало указанное количество осадков.
  • R24 - Количество осадков - Количество выпавших осадков за 24 часа, мм.
  • S - Снежный покров - Высота снежного покрова, см. При наведении курсора мыши на число - состояние снежного покрова и степень покрытия местности в баллах.